Wind_Speed
45 44 44 43 43 42 41 40 40 39 38 38 38 38 38 38 38 39 39 39 39 39 39 39 39 39 38 38 38 37 37 37 37 36 35 35 34 33 32 32 31 30 30
47 46 46 45 44 43 42 42 41 41 40 40 40 40 40 40 39 40 40 40 40 40 40 40 41 41 40 40 40 39 38 38 38 38 38 37 36 35 34 34 34 33 32
48 48 47 46 45 44 43 43 43 42 42 41 41 41 42 41 41 41 41 41 41 41 41 40 41 42 42 42 42 42 40 40 40 39 39 38 38 37 36 35 36 36 35
48 48 48 48 46 45 45 44 44 43 43 42 42 42 42 41 41 42 42 42 42 41 41 41 42 42 43 43 44 43 42 41 41 40 40 40 39 39 38 37 37 38 38
47 48 48 48 47 47 46 45 45 45 44 43 42 42 42 42 42 42 42 42 42 43 43 43 42 43 43 43 44 43 43 42 42 42 41 41 41 41 40 39 38 39 39
48 48 48 48 48 48 47 46 46 45 45 44 43 43 43 43 43 43 43 43 42 43 44 44 44 43 43 44 44 45 44 43 43 43 42 42 41 41 42 41 40 40 40
48 48 48 48 48 47 47 46 46 45 45 44 44 44 44 43 43 43 43 43 43 43 44 45 45 45 44 45 45 45 45 44 43 42 42 42 42 42 42 42 41 40 41
48 47 48 48 48 47 47 47 46 46 45 45 44 44 44 44 43 42 43 43 43 43 44 45 45 45 46 46 46 46 46 45 45 44 44 43 43 43 43 43 43 42 42
47 47 48 48 48 47 47 47 46 46 45 45 45 45 44 44 44 43 44 44 43 43 43 44 45 46 46 46 46 47 47 47 46 46 45 45 44 44 44 44 44 44 44
46 47 47 48 48 48 47 47 46 46 45 45 45 45 45 45 45 45 45 45 44 43 43 44 45 46 47 47 48 48 48 48 47 47 46 46 46 45 45 45 45 45 44
46 46 46 47 47 47 47 46 46 46 46 46 46 46 46 46 46 47 46 46 45 44 44 44 45 46 46 47 48 48 48 49 49 49 48 47 47 47 47 47 46 45 45
46 46 46 46 46 47 46 46 46 46 46 47 47 47 47 47 47 47 47 46 45 45 45 46 46 46 46 46 47 48 48 49 49 49 48 48 48 48 49 48 48 48 48
45 45 45 45 46 46 46 46 47 46 46 46 46 47 48 48 48 47 48 47 46 45 45 46 46 46 46 46 47 47 47 48 49 49 49 49 49 49 49 49 49 49 49
44 45 45 45 45 46 46 46 46 46 46 46 47 47 47 47 47 47 47 47 47 47 47 47 47 47 47 47 47 47 47 48 48 48 49 49 50 50 50 50 50 50 49
43 43 44 45 45 45 46 45 45 45 45 46 46 46 46 47 47 47 47 48 48 48 48 48 48 48 48 48 48 48 48 48 48 48 49 49 50 51 51 51 51 51 50
43 43 43 44 44 45 46 46 46 46 46 46 46 46 46 46 47 46 46 47 47 48 49 49 48 48 48 47 48 49 49 49 50 50 50 49 50 50 51 52 52 52 51
41 42 43 43 44 44 45 45 45 45 46 46 46 46 47 47 47 47 47 47 47 47 47 47 48 48 49 49 49 50 50 50 50 50 50 51 51 52 52 53 53 53 52
39 41 42 42 43 43 44 44 45 45 45 45 46 46 47 47 47 47 47 48 48 48 47 47 47 48 48 50 50 50 51 51 50 50 51 51 52 52 53 53 54 54 54
38 39 40 41 41 41 42 42 43 44 44 44 45 46 46 46 46 46 46 46 46 47 47 47 47 48 48 48 49 50 51 51 51 51 51 51 52 52 52 52 53 53 53
37 38 38 39 40 40 41 41 41 42 43 43 43 44 45 45 45 44 45 45 45 45 45 46 46 46 47 47 48 48 49 50 50 50 50 50 50 51 51 51 52 53 52
36 37 37 37 38 39 39 40 40 41 42 43 43 44 44 44 44 44 44 44 44 43 43 44 44 45 46 46 47 47 47 48 48 49 49 49 50 50 51 52 52 52 53
35 36 36 36 37 37 38 38 38 39 41 42 42 43 43 44 44 44 44 44 43 43 43 43 43 43 44 44 44 45 46 47 47 47 47 48 49 49 50 51 51 52 53
33 34 35 35 35 36 36 37 37 38 38 39 41 42 42 43 43 44 43 43 43 43 43 42 42 42 42 43 43 44 45 46 46 46 47 48 48 48 48 49 50 51 51
31 33 34 33 34 34 35 35 35 36 36 37 39 40 41 42 42 43 43 42 42 42 42 42 42 42 43 43 43 44 44 44 45 46 47 47 48 48 48 49 50 50 51
29 30 31 31 31 32 33 34 34 35 36 36 36 37 38 39 40 41 41 41 42 42 42 42 42 42 42 42 42 43 43 43 44 45 46 47 48 48 49 49 49 49 49
28 28 28 29 30 31 32 33 33 34 34 35 35 35 36 37 37 38 38 39 40 40 41 41 41 41 41 41 41 42 42 43 43 44 45 46 46 47 48 48 48 48 49
Wind_Direction
240 240 241 241 241 241 242 242 242 242 242 242 243 244 244 245 245 244 246 247 247 246 246 246 246 245 245 244 245 246 246 247 248 249 251 253 255 256 254 255 255 256 257
240 240 240 241 241 242 242 242 242 243 243 243 244 244 245 246 245 245 246 246 246 246 246 246 246 245 245 245 245 247 248 248 249 250 252 253 254 255 255 255 255 255 256
240 240 240 240 241 241 241 242 243 243 244 244 245 245 245 245 246 246 246 246 246 246 246 246 246 246 246 246 246 248 250 250 251 251 252 253 254 255 256 256 257 256 256
240 240 240 240 240 241 241 242 242 243 244 245 245 245 245 246 246 246 247 247 247 247 246 246 246 247 247 247 247 248 250 251 251 251 252 253 255 254 255 257 258 258 257
239 239 239 239 239 240 241 241 242 243 244 245 245 245 246 247 247 248 249 249 248 247 246 247 248 248 247 247 247 247 249 251 251 252 253 253 255 255 254 255 257 257 257
237 238 238 238 239 240 240 241 241 242 243 244 245 246 246 247 248 249 249 249 248 248 248 248 249 248 248 248 248 247 249 250 251 252 253 253 254 254 254 255 256 257 257
236 237 237 237 239 239 240 241 242 243 244 245 245 246 247 247 248 249 249 248 248 248 248 248 248 249 249 249 248 247 248 250 251 252 253 253 253 254 255 256 256 258 258
237 236 237 237 238 240 241 241 243 244 245 245 245 246 247 248 249 250 249 248 248 248 248 248 248 249 249 249 249 248 249 250 250 252 254 254 253 254 256 257 257 258 259
236 236 237 237 238 239 240 242 243 245 245 245 245 246 247 247 248 248 248 248 248 248 249 249 249 249 249 249 249 250 250 251 251 252 254 254 253 254 256 257 258 258 258
237 237 237 237 238 239 240 242 243 245 245 245 245 246 247 247 247 247 247 247 248 249 249 249 249 249 249 250 249 249 250 251 251 252 254 255 254 254 256 257 257 256 256
236 236 237 237 238 239 240 242 244 244 245 245 246 247 247 247 247 247 247 247 247 248 248 249 249 249 249 249 249 249 250 251 252 252 253 255 255 256 257 256 255 256 258
236 236 237 237 238 239 240 241 243 244 245 246 247 248 248 247 247 247 247 246 247 247 248 248 249 250 250 251 250 250 250 251 251 253 254 254 255 256 256 257 256 258 259
237 237 237 238 238 239 240 241 242 244 245 247 248 248 247 247 247 248 247 247 247 247 248 249 249 250 251 251 251 251 251 252 252 253 254 255 255 256 257 257 258 259 261
237 238 238 239 240 240 241 241 242 243 245 246 247 247 247 247 248 248 248 248 248 248 248 249 250 250 250 251 251 251 251 252 253 254 254 255 255 256 257 258 260 261 262
236 237 238 239 240 241 241 241 242 243 244 245 246 245 246 246 246 248 249 249 249 249 250 251 252 252 251 251 251 251 251 253 253 255 255 256 257 257 257 258 259 260 262
237 237 238 239 240 241 241 242 242 242 244 245 245 244 244 245 246 247 249 249 250 251 252 252 252 252 251 251 252 252 253 254 255 255 256 256 257 259 259 258 259 260 262
238 238 239 239 240 241 241 242 243 243 244 245 245 244 244 245 245 246 247 249 250 252 253 253 253 252 251 252 253 253 253 253 255 255 257 257 258 260 260 260 260 260 262
239 239 240 240 240 241 242 243 243 243 243 244 244 244 244 245 246 246 248 249 250 252 252 252 253 253 253 253 252 253 254 254 255 257 258 259 260 261 261 260 260 261 262
240 241 241 240 241 242 243 243 243 244 243 243 243 243 243 244 246 246 247 249 250 251 252 253 253 254 254 254 253 254 254 254 255 257 258 259 260 261 261 260 260 261 263
242 242 242 242 242 243 243 244 244 244 243 243 242 243 243 244 245 246 247 248 250 251 252 252 253 253 254 254 255 255 255 255 256 257 258 259 260 260 260 260 260 261 263
243 243 242 243 243 243 244 244 244 243 243 243 243 243 243 244 244 245 246 247 249 250 251 252 253 254 255 255 255 255 256 256 256 257 257 258 259 260 261 261 261 263 264
242 242 243 243 243 244 244 243 244 244 243 243 243 244 244 244 244 245 246 248 249 250 251 253 254 254 255 256 255 255 256 257 257 257 258 259 259 260 262 262 263 264 265
241 241 241 241 242 242 243 242 243 243 242 243 243 244 244 244 245 246 247 248 249 250 252 253 255 255 256 256 257 257 258 259 259 259 259 260 260 262 263 264 266 266 266
240 240 240 240 241 242 243 242 241 241 241 243 244 244 244 245 246 246 247 248 249 250 252 254 255 256 257 258 258 259 260 260 261 261 262 262 263 263 264 266 267 267 268
238 239 239 239 239 240 240 241 242 241 241 242 243 243 243 243 244 245 245 247 248 250 251 252 253 254 256 258 259 260 261 263 263 263 264 263 263 264 265 266 267 269 270
236 236 236 237 237 237 238 239 240 240 241 242 242 242 241 242 243 243 244 246 248 249 250 252 254 256 258 258 259 260 261 263 263 264 264 264 264 265 266 267 268 269 270
Height
5726 5729 5733 5736 5740 5743 5746 5749 5752 5755 5758 5760 5763 5766 5768 5771 5773 5776 5779 5781 5784 5786 5789 5791 5793 5796 5798 5801 5804 5806 5808 5810 5812 5813 5815 5816 5816 5817 5818 5819 5819 5820 5820
5715 5719 5722 5726 5730 5734 5737 5740 5743 5746 5749 5752 5754 5757 5759 5762 5765 5767 5770 5772 5775 5777 5780 5782 5785 5787 5790 5793 5796 5798 5800 5802 5804 5806 5807 5808 5810 5810 5811 5811 5812 5813 5813
5704 5708 5712 5716 5720 5723 5727 5731 5734 5737 5740 5742 5745 5748 5750 5753 5756 5758 5760 5763 5765 5768 5771 5773 5776 5778 5781 5784 5787 5790 5792 5794 5796 5798 5800 5801 5802 5803 5804 5804 5805 5805 5806
5692 5696 5701 5705 5709 5713 5717 5720 5723 5726 5729 5732 5735 5738 5741 5744 5746 5748 5751 5753 5755 5758 5761 5764 5766 5769 5771 5774 5777 5780 5783 5785 5787 5789 5791 5793 5794 5795 5796 5797 5797 5797 5798
5681 5685 5689 5694 5698 5702 5706 5709 5713 5716 5719 5722 5725 5728 5731 5734 5736 5739 5741 5743 5746 5748 5751 5754 5757 5759 5762 5764 5767 5770 5773 5776 5778 5780 5782 5783 5785 5786 5788 5789 5789 5790 5790
5669 5673 5678 5682 5686 5690 5694 5698 5701 5705 5708 5711 5715 5718 5721 5723 5726 5729 5731 5733 5736 5738 5741 5744 5746 5749 5752 5755 5757 5760 5763 5766 5768 5770 5772 5774 5775 5777 5778 5780 5781 5782 5783
5657 5662 5666 5671 5675 5679 5683 5686 5690 5694 5697 5701 5704 5707 5710 5713 5716 5718 5721 5723 5726 5728 5731 5734 5736 5739 5742 5745 5747 5750 5753 5756 5758 5761 5763 5764 5766 5768 5769 5771 5772 5773 5774
5646 5650 5655 5659 5663 5667 5671 5675 5679 5682 5686 5689 5693 5696 5699 5702 5705 5708 5710 5713 5716 5718 5720 5723 5726 5729 5731 5734 5737 5740 5743 5746 5748 5751 5753 5755 5756 5758 5760 5762 5763 5765 5766
5634 5639 5643 5647 5652 5656 5660 5664 5667 5671 5674 5678 5681 5685 5688 5692 5695 5697 5700 5702 5705 5708 5710 5713 5715 5718 5721 5724 5727 5730 5732 5735 5738 5740 5742 5744 5746 5748 5750 5751 5753 5755 5756
5622 5627 5631 5636 5640 5644 5649 5652 5656 5660 5663 5667 5670 5674 5677 5680 5683 5686 5690 5692 5695 5697 5700 5702 5704 5707 5710 5713 5716 5719 5722 5724 5727 5730 5732 5734 5736 5738 5739 5741 5743 5745 5746
5610 5615 5620 5624 5629 5633 5637 5641 5645 5648 5652 5655 5659 5662 5666 5669 5672 5675 5679 5681 5684 5687 5689 5691 5694 5696 5699 5701 5704 5707 5710 5713 5716 5719 5721 5723 5725 5727 5729 5731 5732 5734 5736
5599 5603 5608 5613 5617 5621 5625 5629 5633 5637 5640 5644 5647 5651 5654 5657 5660 5664 5667 5670 5673 5675 5678 5680 5683 5685 5688 5691 5693 5696 5699 5702 5705 5707 5710 5712 5714 5717 5719 5720 5722 5723 5725
5587 5592 5597 5601 5605 5610 5614 5618 5621 5625 5629 5632 5635 5639 5642 5645 5648 5651 5655 5658 5661 5664 5667 5669 5672 5675 5677 5680 5682 5685 5688 5691 5693 5696 5698 5701 5703 5705 5708 5709 5711 5712 5713
5576 5581 5585 5589 5594 5598 5602 5606 5609 5613 5617 5620 5624 5627 5630 5633 5637 5640 5643 5646 5649 5652 5655 5658 5661 5663 5666 5668 5671 5674 5677 5679 5682 5684 5687 5689 5691 5694 5696 5698 5699 5700 5701
5565 5569 5574 5578 5582 5586 5590 5594 5598 5601 5605 5608 5612 5615 5618 5621 5625 5628 5631 5634 5637 5640 5643 5646 5649 5652 5654 5657 5660 5663 5665 5668 5670 5672 5674 5676 5679 5681 5684 5686 5687 5689 5689
5554 5558 5562 5566 5570 5574 5578 5582 5586 5589 5593 5596 5600 5603 5606 5610 5613 5616 5619 5622 5625 5628 5631 5634 5637 5639 5642 5645 5647 5650 5653 5655 5658 5660 5662 5664 5667 5669 5671 5673 5675 5676 5677
5543 5546 5551 5555 5559 5563 5566 5570 5574 5577 5581 5584 5588 5591 5594 5598 5601 5605 5608 5611 5613 5616 5618 5621 5624 5627 5630 5632 5635 5637 5640 5643 5645 5647 5650 5652 5655 5656 5658 5660 5662 5664 5665
5531 5535 5539 5543 5547 5551 5555 5558 5562 5566 5569 5573 5576 5579 5582 5586 5589 5592 5596 5598 5601 5604 5606 5609 5611 5614 5617 5619 5622 5624 5627 5630 5632 5635 5637 5639 5641 5643 5645 5647 5649 5651 5652
5521 5524 5528 5532 5536 5540 5543 5547 5550 5554 5557 5561 5564 5567 5571 5574 5577 5581 5584 5586 5589 5591 5594 5597 5599 5602 5604 5607 5609 5611 5614 5616 5619 5622 5624 5626 5628 5630 5632 5634 5636 5638 5639
5510 5514 5518 5521 5525 5528 5532 5535 5539 5542 5546 5549 5552 5556 5559 5562 5566 5569 5572 5574 5577 5579 5582 5584 5587 5589 5592 5594 5596 5598 5601 5603 5606 5609 5611 5613 5615 5616 5618 5620 5622 5623 5625
5500 5504 5507 5511 5514 5518 5521 5524 5527 5530 5534 5537 5541 5544 5548 5551 5554 5558 5560 5563 5565 5568 5570 5573 5575 5577 5579 5582 5584 5586 5588 5590 5593 5595 5597 5600 5601 5603 5604 5606 5608 5610 5611
5490 5494 5497 5501 5504 5507 5510 5513 5516 5519 5522 5526 5529 5533 5536 5540 5543 5546 5549 5552 5554 5557 5559 5561 5563 5565 5567 5570 5571 5573 5575 5577 5580 5582 5584 5586 5588 5589 5591 5592 5594 5595 5596
5481 5484 5487 5491 5494 5497 5499 5503 5506 5508 5511 5515 5518 5521 5525 5528 5531 5535 5537 5540 5543 5546 5548 5550 5552 5554 5556 5558 5560 5561 5563 5564 5566 5569 5571 5573 5574 5576 5577 5578 5579 5580 5581
5471 5475 5478 5481 5484 5487 5490 5493 5495 5498 5501 5504 5508 5511 5514 5517 5520 5523 5526 5529 5532 5534 5537 5539 5541 5543 5545 5546 5548 5549 5551 5552 5553 5555 5557 5559 5560 5562 5563 5564 5565 5566 5567
5463 5466 5469 5472 5475 5478 5481 5483 5486 5489 5492 5495 5497 5500 5503 5506 5509 5512 5515 5518 5521 5523 5526 5528 5529 5531 5534 5535 5536 5537 5539 5540 5541 5542 5543 5545 5546 5548 5549 5551 5551 5552 5552
5455 5458 5461 5463 5466 5469 5471 5474 5477 5479 5482 5485 5488 5490 5493 5495 5498 5501 5504 5507 5510 5512 5514 5516 5518 5520 5522 5523 5524 5525 5526 5527 5528 5529 5530 5532 5533 5534 5536 5537 5537 5538 5538